FW1003 Weather Reports


Display with metric or nautical units.
time (UTC)temp
F
wind
direction
speed
MPH
gust
MPH
rain 1hr
in
rain 24hr
in
rain mn
in
humidity
%
barometer
mb
20260505090021 65 239 2.0 8.0 0.01 0.01 0.01 67 1017.4
20260505084526 67 136 2.0 8.0 0.00 0.00 0.00 63 1017.2
20260505083028 69 105 2.0 6.0 0.00 0.00 0.00 59 1017.2
20260505081517 71 360 3.0 12.0 0.00 0.00 0.00 46 1017.0
20260505080021 72 162 4.0 11.0 0.00 0.08 0.00 44 1016.9
20260505074511 72 165 4.0 14.0 0.00 0.08 0.00 46 1016.7
20260505073022 72 165 6.0 18.0 0.00 0.08 0.00 46 1016.6
20260505071507 71 360 5.0 15.0 0.00 0.08 0.00 45 1016.5
20260505070001 71 360 5.0 16.0 0.00 0.08 0.00 47 1016.3
20260505064607 70 165 6.0 15.0 0.00 0.08 0.00 48 1016.3
20260505063100 70 360 4.0 15.0 0.00 0.08 0.00 46 1016.2
20260505061557 68 360 3.0 15.0 0.00 0.08 0.00 47 1016.1
20260505060058 68 360 3.0 14.0 0.00 0.08 0.00 50 1016.1
20260505054546 67 205 4.0 14.0 0.00 0.08 0.00 50 1016.1
20260505053044 67 360 5.0 12.0 0.00 0.08 0.00 50 1016.0
20260505051542 67 118 4.0 14.0 0.00 0.08 0.00 49 1015.8
20260505041515 65 188 5.0 15.0 0.00 0.08 0.00 52 1015.6
20260505040016 65 360 4.0 12.0 0.00 0.08 0.00 51 1015.6
20260505034508 65 143 4.0 13.0 0.00 0.08 0.00 52 1015.5
20260505033006 65 166 3.0 10.0 0.00 0.08 0.00 53 1015.4
20260505031502 64 187 2.0 9.0 0.00 0.08 0.00 52 1015.4
20260505030112 64 157 1.0 6.0 0.00 0.08 0.00 52 1015.2
20260505024600 64 161 0.0 9.0 0.00 0.08 0.00 52 1015.3
20260505023054 64 156 1.0 8.0 0.00 0.08 0.00 52 1015.3
20260505021554 65 360 1.0 12.0 0.00 0.08 0.00 53 1015.3
20260505020049 65 124 3.0 8.0 0.00 0.08 0.00 53 1015.3
20260505014603 65 152 1.0 9.0 0.00 0.08 0.00 52 1015.2
20260505013051 65 223 4.0 9.0 0.00 0.08 0.00 54 1015.2
20260505011546 65 360 3.0 10.0 0.00 0.08 0.00 54 1015.2
20260505010043 65 360 3.0 10.0 0.00 0.08 0.00 52 1015.4
20260505004547 65 160 3.0 12.0 0.00 0.08 0.00 52 1015.5
20260505003050 65 137 3.0 10.0 0.00 0.08 0.00 53 1015.6
20260505001531 65 207 3.0 12.0 0.00 0.08 0.00 57 1015.6
20260505000030 65 97 1.0 10.0 0.00 0.08 0.00 56 1015.8
20260504234523 65 157 3.0 10.0 0.00 0.08 0.00 54 1015.9
20260504233021 65 250 3.0 9.0 0.00 0.08 0.00 55 1016.0
20260504231520 65 131 3.0 8.0 0.00 0.08 0.00 54 1016.1
20260504230016 65 157 3.0 9.0 0.00 0.08 0.00 55 1016.4
20260504224518 65 139 4.0 14.0 0.00 0.08 0.00 55 1016.4
20260504223015 65 181 2.0 11.0 0.00 0.08 0.00 55 1016.7
20260504221511 65 360 3.0 9.0 0.00 0.08 0.00 54 1016.8
20260504220007 65 207 1.0 7.0 0.00 0.08 0.00 54 1017.0
20260504214505 65 360 5.0 11.0 0.00 0.08 0.00 54 1017.1
20260504213010 65 130 2.0 6.0 0.00 0.08 0.00 54 1017.3
20260504211503 65 156 3.0 6.0 0.00 0.08 0.00 53 1017.3
20260504210058 65 360 2.0 10.0 0.00 0.08 0.00 55 1017.4
20260504204603 65 157 3.0 8.0 0.00 0.08 0.08 55 1017.4
20260504203107 65 360 2.0 9.0 0.00 0.08 0.08 54 1017.4
20260504201611 65 167 3.0 8.0 0.00 0.08 0.08 53 1017.6
20260504200054 65 236 2.0 12.0 0.00 0.08 0.08 51 1017.6
20260504194555 65 187 2.0 8.0 0.00 0.09 0.08 54 1017.7
20260504193058 65 121 1.0 6.0 0.00 0.09 0.08 55 1017.8
20260504191607 65 162 1.0 5.0 0.00 0.09 0.08 55 1017.7
20260504184551 66 360 3.0 6.0 0.00 0.09 0.08 56 1017.6
20260504183046 65 189 2.0 8.0 0.00 0.09 0.08 53 1017.6
20260504181548 65 182 2.0 7.0 0.00 0.09 0.08 54 1017.5
20260504180040 65 61 2.0 11.0 0.00 0.09 0.08 55 1017.4
20260504174544 66 360 2.0 9.0 0.00 0.09 0.08 57 1017.4
20260504173138 66 208 1.0 10.0 0.00 0.09 0.08 54 1017.3
20260504171540 66 78 2.0 6.0 0.00 0.09 0.08 54 1017.1